Weather in Ilya-Vysokovo

Russia / Ivanovo Oblast     56°56′13″N   43°02′46″E
temp.,
°C
wind,
m/s
gust,
m/s
humid.,
%
clouds,
%
prec.,
mm/h
press.,
hPa
HPBL,
m
14 august, sun
sun1400:00+17se2264100 0.0 102212
03:00+16s2374100 0.0 102231
06:00+17s2375100 0.0 102250
09:00+22s2261100 0.0 1022352
12:00+24se224914 0.0 10221293
15:00+24ese324943 0.0 1022856
18:00+22ene2257100 0.0 102113
21:00+20ene226599 0.0 102235
15 august, mon
mon1500:00+20ese116698 0.0 102211
03:00+19ese1170100 0.0 102212
06:00+19se1172100 0.0 102316
09:00+21sse1166100 0.0 1024165
12:00+22e1161100 0.0 1024219
15:00+23ne11545 0.0 1023277
18:00+22e23645 0.0 102394
21:00+19ese227242 0.0 102411
16 august, tue
tue1600:00+18ese337364 0.0 102521
03:00+17ese338046 0.0 102528
06:00+17ese348169 0.0 102581
09:00+21ese346585 0.0 1026331
12:00+24se34547 0.0 1025770
15:00+25se244823 0.0 10241313
18:00+24se235515 0.0 102393
21:00+19se356568 0.0 102448
17 august, wed
wed1700:00+17ese337242 0.0 102443
03:00+16ese337762 0.0 102338
06:00+16ese34775 0.0 1024107
09:00+21ese34611 0.0 1023311
12:00+24ese34515 0.0 1022818
15:00+25ese23465 0.0 10211183
18:00+24ese11545 0.0 102115
21:00+20e33644 0.0 102116
18 august, thu
thu1800:00+17ese33760 0.0 102234
03:00+16e33810 0.0 102236
06:00+16e35790 0.0 1023108
09:00+21ese46610 0.0 1024338
12:00+24ese45472 0.0 10231172
15:00+26ese46410 0.0 10231564
18:00+24ese35550 0.0 1023106
21:00+20e48670 0.0 102497